Location: Sungai Sama
(2.7833°N, 113.8500°E)
Time: 02:01:15
(UTC+00:00)

Daily predictions for brighter satellites

Satellite Brightness Start Highest point End
(mag) Time Altitude Azimuth Time Altitude Azimuth Time Altitude Azimuth
CZ-3A R/B 2.1 10:50:26 10° WSW 10:54:29 71° SSE 11:01:57 10° ENE
Cosmos 1455 3.2 10:52:55 10° NNW 10:56:40 52° W 11:00:26 10° S
Cosmos 1939 Rocket 3.1 10:52:33 10° S 10:56:41 80° W 11:00:47 10° NNW
Cosmos 923 Rocket 4.0 10:55:29 10° N 11:00:40 63° ENE 11:05:51 10° SSE
Cosmos 489 Rocket 4.5 10:54:34 10° N 11:00:50 79° ENE 11:07:05 10° SSE
SWARM A 4.4 10:58:01 10° SSE 11:01:14 49° E 11:04:26 10° NNE
Okean-O 3.6 10:57:39 10° SE 11:01:17 25° ENE 11:04:54 10° NNE
H-2A R/B 2.8 11:00:21 10° SE 11:04:29 27° ENE 11:08:39 10° NNE
Cosmos 1680 Rocket 3.7 11:00:27 10° N 11:05:26 48° ENE 11:10:26 10° SSE
Cosmos 1943 Rocket 2.8 11:01:14 10° S 11:06:13 35° ESE 11:11:12 10° NE
ARIANE 5 R/B 3.7 10:21:50 10° W 11:08:53 80° N 11:13:47 11° E
Cosmos 1125 Rocket 3.5 11:06:43 10° S 11:11:55 87° ESE 11:17:07 10° NNE
USA 267 3.7 11:10:22 10° NNE 11:16:46 61° NW 11:23:12 10° SW
Cosmos 1953 Rocket 4.0 11:12:56 10° SSW 11:17:18 66° W 11:21:37 10° N
Cosmos 2369 Rocket 3.3 11:13:17 10° SSE 11:17:44 23° ESE 11:21:09 14° ENE
Cosmos 1812 Rocket 3.6 11:14:13 10° N 11:18:32 81° W 11:22:51 10° S
Cosmos 405 3.1 11:15:15 10° N 11:18:38 49° E 11:22:00 10° SSE
IRS-1C Rocket 4.0 11:13:28 10° SSE 11:18:42 73° ENE 11:23:55 10° N
Cosmos 1825 3.4 11:17:20 10° SE 11:20:17 22° E 11:22:03 16° ENE
COSMOS 2406 4.5 11:16:45 10° NNE 11:20:34 18° ENE 11:24:20 10° ESE
Ariane H10-3 1.9 11:18:46 10° WSW 11:21:05 35° S 11:22:45 13° ESE
CZ-4 R/B 1.4 11:18:56 10° SSE 11:23:03 65° E 11:27:06 10° N
deb Ariane 3.8 11:25:02 10° WSW 11:27:44 68° S 11:33:35 16° E
Cosmos 2058 3.2 11:25:36 10° SSE 11:29:36 43° E 11:33:30 10° NNE
GPS 2-04 Rocket1 3.4 11:29:09 10° WSW 11:32:17 36° NW 11:34:23 17° NNE
NATO 3D Rocket 3.6 11:30:53 10° W 11:35:37 56° NNW 11:38:27 23° NE
ARIANE 44LP R/B 1.8 11:33:02 10° W 11:37:02 85° N 11:37:38 43° E
Ariane H10+ 3.0 11:22:02 10° W 11:37:46 70° N 11:41:03 25° ENE
Cosmos 2266 Rocket 4.0 11:32:37 10° S 11:39:01 88° E 11:45:18 10° N
Aureole 3 Rocket 4.2 11:37:11 10° NNW 11:41:46 61° W 11:48:16 10° S
CZ-2C R/B 4.3 11:38:50 10° S 11:43:37 44° W 11:48:39 10° NNW
SL-08 RB Rocket 4.2 11:40:48 10° SE 11:44:57 34° ENE 11:46:31 27° NE
Cosmos 2112 Rocket 4.3 11:39:54 10° NNW 11:45:01 68° WSW 11:50:10 10° S
ARGOS 3.1 11:43:57 10° SSE 11:49:14 62° ENE 11:54:30 10° N
SL-8 R/B 3.8 11:46:53 10° SW 11:51:37 70° NW 11:54:02 29° NNE
SJ-11-01 4.4 11:47:46 10° S 11:52:29 78° WSW 11:57:10 10° NNW
Cosmos 1441 Rocket 3.6 11:52:01 10° SSW 11:55:51 64° W 11:58:59 15° N
